Location: Briis
(48.6240°N, 2.1211°E)
Time: 17:59:35
(UTC+00:00)

PSLV R/B - Pass Details

Date: 25 September 2020
Orbit: 593 x 630 km, 97.9° (Epoch: 22 October)

Event Time Altitude Azimuth Distance (km) Brightness Sun altitude
Rises 03:55:11 0° 14° (NNE) 2,852 7.5 -18.3°
Reaches altitude 10° 03:57:22 10° 15° (NNE) 1,942 6.6 -17.9°
Maximum altitude 04:01:35 82° 103° (ESE) 607 3.5 -17.3°
Enters shadow 04:05:40 11° 192° (SSW) 1,888 5.8 -16.6°
